GFSFLT2_700_spd_000.txt.gz
Wind_Speed
6 5 9 10 11 12 14 12 10 9 7 3 6 7 5 3 3 4 7 10 8 6 7 5 5 8 13 18 22 25 26 27
2 4 7 10 11 14 12 8 7 9 7 6 9 10 11 9 8 8 8 8 7 6 7 9 10 11 12 14 20 21 24 27
1 4 8 12 14 13 8 7 7 7 6 7 8 10 11 11 11 12 13 13 12 12 12 12 12 14 14 15 15 17 20 21
4 13 18 18 17 15 11 9 9 11 10 10 10 11 11 12 13 14 14 15 15 16 15 16 16 15 15 15 16 17 18 20
10 15 15 16 16 15 15 14 15 14 15 15 15 15 16 17 18 19 19 19 20 20 19 19 18 19 19 18 17 18 17 20
12 12 16 19 19 19 19 18 19 20 20 20 19 19 20 21 22 23 24 25 25 24 24 24 23 23 22 22 22 22 21 21
10 12 16 19 21 23 23 21 21 22 23 23 23 23 24 26 27 27 27 27 27 27 26 26 26 26 26 26 26 26 27 26
9 13 18 21 23 23 22 21 22 23 24 25 26 27 27 29 29 29 28 28 28 27 27 26 27 28 29 29 29 29 30 31
9 14 18 22 23 24 23 22 24 25 25 26 26 28 28 28 29 29 28 28 28 26 26 27 27 28 29 29 30 31 32 34
10 15 16 18 20 18 20 22 23 27 26 25 26 29 30 29 29 29 29 28 27 26 27 28 29 29 30 30 30 32 33 35
14 16 15 18 22 20 25 27 28 35 29 28 26 25 27 29 29 29 30 31 31 32 31 30 30 30 30 31 32 32 34 34
17 18 17 21 25 24 29 28 32 33 32 34 33 28 27 28 29 29 29 28 28 29 30 30 30 30 31 31 30 30 31 33
19 19 22 26 30 27 28 29 31 30 28 32 31 28 27 28 29 31 33 34 31 30 29 30 30 30 32 31 31 33 32 31
15 16 21 27 29 31 29 30 30 30 30 33 33 32 33 34 35 36 37 39 38 37 39 39 39 37 35 32 35 35 34 33
14 18 24 26 28 28 30 34 37 36 37 39 43 37 35 39 42 43 43 43 43 41 43 45 43 43 44 39 41 40 35 37
22 24 26 29 32 32 34 37 40 41 44 46 42 37 38 41 46 47 45 45 46 43 44 49 45 48 46 47 45 47 47 44
25 25 27 32 32 34 36 40 45 51 46 43 44 44 45 46 48 49 50 49 49 46 48 47 49 49 48 49 50 50 52 53
27 27 31 33 34 36 39 46 47 46 47 47 47 48 49 49 50 52 54 55 53 49 52 52 54 54 56 55 56 56 57 58
28 30 33 35 35 41 45 43 44 45 48 48 47 47 49 50 50 51 52 51 49 45 47 54 58 56 62 59 59 62 62 60
31 34 36 38 43 40 42 45 48 47 45 49 51 51 51 49 49 46 42 36 31 33 41 57 60 66 57 53 50 50 48 48

GFSFLT2_700_spd_003.txt.gz
Wind_Speed
3 2 3 6 7 8 8 4 5 6 3 0 2 3 4 4 2 4 5 6 6 6 7 7 7 7 9 11 15 19 21 24
3 0 3 6 7 8 6 4 4 5 3 2 4 5 6 6 6 8 10 10 10 9 10 10 12 14 15 14 15 15 19 21
3 2 9 10 10 8 7 6 7 6 7 8 9 10 10 11 11 12 12 14 14 14 14 15 16 16 16 16 15 14 14 16
3 4 10 12 13 13 11 8 8 8 9 11 12 13 14 15 16 17 18 18 18 17 17 18 19 20 20 19 18 17 16 16
4 8 13 15 16 15 14 13 12 12 13 15 16 17 17 18 19 21 23 23 24 24 23 23 23 23 24 23 22 21 20 20
6 9 13 15 17 18 17 16 15 15 17 17 18 19 20 22 24 25 27 28 29 29 28 27 27 27 27 27 26 25 25 25
5 8 11 14 15 17 19 18 17 20 20 20 21 22 23 24 26 27 28 30 31 31 31 30 29 28 28 29 30 29 29 29
2 4 8 12 12 15 19 21 20 20 25 23 21 21 22 24 25 27 27 29 29 29 29 29 29 29 30 30 31 33 33 34
3 6 10 12 14 20 22 25 23 21 25 23 23 25 26 26 25 25 26 27 28 28 28 27 27 28 29 30 32 33 35 37
7 11 14 13 15 22 25 24 23 21 22 21 21 25 25 25 25 25 26 26 27 28 28 28 29 31 31 31 32 34 36 38
9 14 15 17 20 23 27 27 24 23 22 23 24 27 27 25 24 24 25 26 27 29 30 31 31 31 31 31 32 33 35 37
15 18 19 22 25 26 27 26 24 25 25 25 30 31 31 30 29 29 30 32 32 32 33 33 33 33 33 32 32 32 34 34
15 17 18 20 23 28 27 27 24 25 26 28 32 35 36 36 33 32 32 36 36 38 39 39 39 36 37 36 35 35 36 36
12 16 18 21 24 26 29 30 29 30 31 33 37 39 39 39 39 39 40 42 42 42 42 45 44 41 41 43 46 43 41 36
11 15 17 21 25 28 29 30 32 34 35 39 39 37 37 39 39 42 44 47 49 48 47 46 48 47 43 44 48 51 45 41
13 15 20 24 28 30 33 34 36 38 43 47 40 41 43 43 43 43 44 46 49 50 51 51 49 51 53 49 54 52 53 48
17 20 24 28 31 34 37 38 39 44 46 42 46 46 44 42 45 48 51 50 50 53 56 56 54 52 56 56 58 57 56 52
22 28 29 32 36 38 39 44 50 49 46 46 43 44 46 49 51 51 51 52 52 50 53 55 55 54 53 56 59 58 57 61
29 32 35 38 42 44 47 48 47 44 40 43 49 51 53 52 51 52 52 53 53 48 45 44 42 42 44 46 53 60 52 63
35 38 41 41 48 51 46 41 41 39 44 47 51 50 50 51 53 53 50 45 39 35 32 33 32 33 38 44 53 49 50 53

GFSFLT2_700_spd_006.txt.gz
Wind_Speed
3 4 5 5 5 6 5 3 3 5 5 3 5 7 8 9 9 8 9 9 10 10 11 13 13 11 9 10 12 14 17 19
5 3 2 5 7 6 4 3 5 5 5 6 9 11 12 12 13 13 14 14 15 15 16 17 17 17 17 16 16 17 17 18
4 2 5 8 8 8 6 5 6 6 7 9 11 14 16 17 18 19 19 19 18 18 19 21 22 22 21 20 18 18 17 17
5 3 7 8 9 9 8 7 7 9 10 12 14 17 19 20 22 23 24 25 25 25 24 24 25 25 26 25 23 21 21 21
6 5 7 8 9 10 11 10 9 9 10 12 13 15 17 19 21 24 26 27 29 29 29 29 29 29 30 30 29 27 26 25
6 5 4 7 9 12 15 13 11 10 10 12 14 16 17 19 21 24 25 27 28 28 29 30 31 31 31 32 32 32 31 30
6 3 2 6 6 9 15 14 14 12 13 15 13 14 17 20 24 26 26 27 27 26 26 26 27 29 30 30 32 34 34 34
4 4 3 7 8 10 14 16 17 16 16 18 16 15 18 21 23 25 27 28 28 28 26 26 26 26 27 28 31 33 35 36
7 8 6 9 12 13 15 20 22 23 21 20 18 17 21 21 21 23 25 26 27 28 28 29 30 31 30 31 32 33 35 36
12 12 12 13 15 17 21 22 23 24 22 22 21 22 25 24 25 25 26 27 27 27 27 29 30 30 31 32 34 35 36 38
14 16 15 15 19 22 23 24 26 26 23 22 20 24 27 29 27 25 29 30 31 31 31 33 34 36 36 36 36 36 37 36
16 17 17 20 22 23 21 25 25 24 24 25 27 28 31 32 31 30 31 31 31 33 36 36 40 39 42 43 41 41 40 39
14 19 19 22 23 21 23 26 27 25 26 27 30 32 36 36 35 35 35 38 37 37 39 42 41 42 43 45 47 47 46 44
14 18 21 22 23 25 27 29 31 29 31 32 34 38 41 42 38 39 39 38 38 37 39 42 45 45 46 46 50 45 42 51
16 20 22 23 25 28 31 35 35 36 36 37 36 42 40 40 39 37 37 38 42 44 45 47 51 51 50 52 50 46 37 36
17 22 25 27 28 32 35 39 40 42 43 43 47 42 39 34 37 39 41 44 46 47 48 50 51 55 54 51 56 54 56 48
22 27 29 31 33 36 40 41 41 47 50 51 47 42 35 37 39 42 45 47 48 50 50 51 53 56 57 56 56 52 56 60
27 28 30 35 37 41 42 45 42 48 46 45 41 37 41 44 47 52 51 51 53 52 53 53 54 54 53 55 53 53 53 46
28 32 36 39 42 44 48 51 44 44 44 45 44 45 45 49 53 52 52 53 53 53 51 47 45 43 40 40 40 40 44 45
30 35 43 48 48 46 44 45 44 44 45 46 45 47 50 55 55 54 52 50 47 43 37 39 41 41 37 36 35 34 36 41

GFSFLT2_700_spd_009.txt.gz
Wind_Speed
6 6 6 6 6 5 6 3 5 8 8 8 9 11 14 15 15 15 15 16 18 18 18 18 17 17 16 15 13 13 14 16
7 6 5 5 4 5 5 6 8 8 8 9 11 13 15 18 18 19 20 21 21 21 22 22 22 22 22 21 19 19 19 18
4 2 1 2 4 4 4 5 7 8 10 11 14 16 18 21 20 23 25 25 26 26 25 25 25 26 25 24 23 23 21 21
6 3 1 2 4 6 6 6 7 7 9 11 14 15 18 20 22 23 25 26 28 29 29 29 30 29 31 29 27 27 25 26
7 5 4 4 5 8 8 8 7 7 8 9 12 14 17 19 21 24 26 27 27 29 31 31 30 30 30 31 31 31 29 29
9 8 5 4 5 6 7 8 10 9 12 14 17 17 18 19 21 25 27 28 29 29 28 29 28 29 29 29 29 30 31 32
8 9 5 2 0 2 6 10 13 16 16 18 19 20 20 20 22 23 25 26 27 28 28 28 29 28 28 27 27 28 29 31
12 8 6 6 6 9 13 16 17 19 22 22 21 22 20 22 22 21 21 23 26 27 27 27 27 28 28 29 29 29 32 32
15 11 11 11 12 15 17 19 20 21 24 25 23 22 20 21 20 20 21 22 26 28 29 29 29 29 30 33 34 33 33 33
13 13 16 15 18 19 22 23 23 24 26 26 24 23 24 23 22 22 24 27 30 29 30 33 34 35 37 38 37 38 39 40
13 19 18 22 21 22 25 25 23 19 24 25 26 26 26 27 27 27 29 32 33 30 29 32 36 37 40 41 43 45 45 43
12 21 19 23 24 24 25 28 26 28 32 32 30 30 31 33 35 37 35 35 37 35 35 34 35 37 37 40 43 44 49 51
13 24 25 22 25 26 28 28 28 32 34 38 36 37 37 39 41 45 43 41 38 35 33 33 35 35 41 43 44 43 46 49
23 24 21 23 27 31 29 30 31 34 36 40 39 41 41 44 46 50 43 40 36 35 35 38 39 40 44 47 51 50 49 46
17 20 22 25 31 32 33 32 35 38 42 41 43 43 45 47 46 45 40 39 39 39 41 44 47 45 45 47 46 49 46 40
21 25 27 30 32 36 34 38 44 46 47 48 51 48 48 45 44 42 41 43 44 46 48 51 51 53 54 53 50 50 50 53
25 29 33 35 38 37 40 45 45 45 49 55 49 43 44 45 42 43 43 45 49 53 55 54 55 57 55 57 56 55 46 51
28 31 35 34 35 44 48 52 50 45 48 51 49 48 47 47 48 49 51 52 57 57 57 59 57 56 55 53 54 52 49 49
25 27 30 37 41 44 47 49 48 50 49 49 49 49 51 52 53 52 54 58 58 57 50 49 45 43 46 41 39 40 41 41
30 31 34 39 42 41 44 46 45 47 48 47 49 51 52 51 52 55 56 56 48 43 42 42 40 34 35 36 40 41 40 40